Theta_e
328 329 328 325 324 326 325 326 325 324 322 321 320 318 315 311 310 309 307 304 303 302
328 326 326 325 326 326 326 326 325 324 322 321 320 317 313 310 308 309 306 304 303 301
328 326 326 325 324 325 325 326 325 324 322 320 319 315 311 309 308 307 306 304 302 302
327 325 325 325 324 324 324 325 325 324 321 319 317 314 310 308 308 306 304 303 304 302
328 327 325 324 323 323 323 325 326 324 320 318 316 315 311 310 308 306 303 305 303 303
330 326 325 324 323 324 324 325 325 323 319 316 314 314 312 311 308 305 305 305 304 304
332 330 325 325 325 324 323 324 324 321 318 316 314 314 312 311 308 306 307 306 305 303
333 332 327 325 325 324 324 324 323 320 318 316 313 312 310 309 307 305 305 305 303 300
332 330 327 325 323 324 324 323 322 320 317 313 313 307 308 308 306 305 305 301 301 303
331 330 326 325 323 323 322 322 320 318 315 312 311 305 305 307 307 305 304 302 302 300
331 330 327 325 323 324 322 318 316 314 313 311 309 304 303 305 306 305 305 304 301 297
331 329 327 325 325 321 318 316 314 311 307 309 305 303 303 305 306 305 303 304 301 297
331 329 327 327 324 321 318 315 312 307 307 306 304 301 302 306 306 304 303 303 300 300
331 329 328 328 323 318 316 311 307 305 304 304 305 304 302 303 306 304 302 300 298 295
Wind_Speed
12 10 10 14 11 10 10 9 10 10 11 11 10 8 7 5 5 6 5 7 5 4
12 12 11 12 12 11 9 8 12 13 12 11 11 10 9 6 6 6 5 6 6 4
12 11 11 12 13 13 10 10 11 12 13 12 11 11 9 6 6 7 5 5 7 5
12 13 13 13 13 12 9 12 13 14 14 13 12 12 9 8 8 8 7 6 7 6
13 14 13 13 13 13 13 12 13 13 14 13 13 13 12 12 10 11 9 8 8 8
13 13 13 13 12 13 13 13 14 14 15 14 14 13 12 12 12 11 11 10 9 8
15 15 14 13 14 15 14 15 14 15 15 15 14 14 14 13 13 12 11 10 9 9
15 14 14 14 15 14 15 15 15 15 15 15 13 11 14 14 14 13 10 7 8 8
14 15 15 15 14 15 16 15 15 16 17 15 11 18 20 18 14 13 13 10 6 8
16 16 17 16 16 17 16 15 16 16 16 17 14 21 19 17 10 10 11 7 7 6
19 19 17 18 16 13 13 15 14 13 13 12 9 18 19 17 14 12 13 10 9 8
20 19 17 15 16 11 10 11 11 11 12 13 13 24 23 17 13 13 12 10 7 8
22 20 19 21 19 21 15 12 11 11 12 17 17 18 16 15 10 12 9 9 7 13
21 22 18 17 13 15 15 13 13 13 12 17 20 21 24 20 11 11 9 8 6 4
Wind_Direction
156 165 169 163 165 180 183 182 174 155 150 149 142 141 141 140 132 130 129 130 120 118
161 160 169 161 169 181 178 179 172 157 150 151 148 147 149 144 133 142 134 137 125 110
165 166 161 162 175 184 173 171 168 157 155 152 151 149 150 142 141 137 135 132 125 121
164 168 163 171 175 182 169 168 175 163 161 157 157 160 156 144 145 134 134 135 128 120
167 172 173 175 175 165 175 171 172 170 164 163 165 166 154 154 148 145 149 148 137 136
174 174 179 177 171 171 171 174 170 173 170 169 169 167 163 155 153 155 157 153 147 147
187 182 175 170 172 175 174 170 173 179 172 173 173 169 163 157 158 156 159 148 151 147
185 182 174 175 178 175 177 179 179 174 175 175 174 166 159 156 159 153 142 132 144 139
178 174 179 178 173 174 179 181 176 181 175 172 176 157 155 157 155 144 135 158 159 153
178 181 180 173 171 179 181 175 180 178 176 177 173 153 139 133 125 130 130 161 154 136
178 187 181 173 167 173 170 174 174 175 177 173 161 141 128 122 129 134 146 162 180 145
179 177 169 177 160 153 173 169 168 157 150 156 140 129 134 135 143 139 154 153 205 144
180 179 173 170 159 165 177 164 149 140 151 149 140 132 125 130 132 151 155 185 170 156
176 168 175 165 159 154 150 142 143 140 144 148 145 146 148 159 165 152 170 169 169 159